RH
54 53 60 63 55 53 49 37 20 3 2 4 3 4 3 3 3 2 3 1 2 3 4 6 6 6 5 4 4 2 2 2 2 2 2 2 2 3 2 2 2 1 2 1 2 2 2 2 2 2 2 3 3 2 3 3 3 6 16 21 19 21 20 12 8 9 8 6 14 20 12 7 10 10 10 11 11 13 11 12 15 12 12 14 18 21 20 21
61 52 57 62 49 45 45 30 11 2 3 4 3 4 3 3 3 2 2 2 4 5 6 8 7 6 5 3 2 2 3 2 2 2 2 2 2 2 2 1 2 2 2 2 2 2 2 3 2 3 3 3 4 3 4 3 3 6 12 20 23 21 13 6 6 6 7 7 9 12 11 9 10 12 12 12 14 14 12 19 27 24 17 13 12 18 20 22
68 58 58 53 39 42 39 20 5 2 4 4 4 4 4 4 2 3 4 5 6 6 7 8 7 7 4 2 2 2 2 2 2 2 2 2 2 2 2 2 2 2 2 2 2 3 3 3 3 3 3 5 4 4 4 4 6 4 8 22 24 13 7 7 7 6 7 7 8 10 11 9 10 12 12 13 12 10 16 28 36 34 31 24 14 15 20 22
68 65 55 40 39 41 23 6 2 3 4 4 5 5 4 4 4 6 6 6 6 6 6 5 6 6 5 3 3 3 2 2 2 2 2 2 2 2 2 2 2 3 2 3 3 3 4 3 4 4 4 6 4 5 5 5 7 5 10 20 15 6 8 9 7 7 7 7 8 9 10 10 11 11 10 12 9 12 23 24 20 18 22 22 16 16 19 22
67 62 51 49 45 24 4 3 4 3 5 5 7 6 5 6 6 7 6 6 6 5 5 2 3 4 5 5 5 5 4 3 2 2 2 2 2 2 2 2 2 3 3 4 4 4 4 4 5 4 5 6 6 9 8 5 5 9 14 11 7 7 8 8 7 7 8 8 9 9 10 11 11 11 11 13 13 16 22 17 13 14 15 15 15 16 18 20
60 59 55 51 27 4 2 5 4 4 7 7 8 7 7 7 6 7 6 6 5 4 3 2 3 2 3 4 3 5 5 4 2 2 2 2 2 2 3 3 3 4 4 4 5 4 5 5 6 5 5 6 7 9 8 6 6 11 16 9 7 9 7 9 9 9 10 10 11 11 11 12 12 14 15 16 17 18 19 17 18 18 17 18 18 19 20 23
49 47 41 26 4 2 6 3 4 6 7 8 8 7 7 7 7 7 6 5 4 2 2 2 3 3 2 2 2 3 3 3 2 2 2 2 3 3 3 4 4 4 4 5 5 5 6 6 6 6 6 7 7 7 7 7 8 10 11 9 9 10 10 11 10 11 13 13 14 14 14 15 15 17 17 19 20 20 20 21 21 20 21 22 22 23 25 26
29 23 17 7 2 5 4 3 7 6 7 8 7 8 7 7 7 5 5 4 2 2 2 3 2 3 3 2 2 3 2 2 2 2 3 3 3 4 4 4 5 5 5 6 5 6 6 6 7 6 7 8 8 8 7 9 13 11 9 11 11 11 12 12 13 15 16 16 16 16 17 17 17 18 20 21 21 21 22 21 22 22 23 24 25 26 27 29
13 6 6 3 4 4 4 7 7 6 8 7 7 8 7 7 6 3 3 2 2 2 2 3 3 3 2 2 2 3 3 2 3 3 3 4 4 4 5 5 5 5 6 6 6 7 7 7 7 7 7 7 9 9 8 12 16 12 10 13 12 13 14 14 16 16 17 17 16 17 17 18 19 21 25 26 22 22 22 21 23 23 24 25 26 28 29 30
12 2 4 3 4 5 6 7 7 8 7 7 8 7 7 7 4 2 2 2 2 3 3 3 3 3 2 2 3 2 3 3 3 4 4 5 4 5 5 5 6 6 7 7 7 8 8 8 8 8 8 8 9 10 9 11 13 11 12 14 12 13 13 14 16 17 17 16 17 16 15 20 23 26 31 30 24 22 21 21 22 22 23 24 25 28 29 30
9 2 4 4 6 6 7 8 8 8 7 8 7 5 6 5 3 2 2 2 2 3 3 3 3 3 2 2 3 3 3 4 4 4 5 5 5 6 6 6 7 7 7 8 8 8 8 8 9 9 9 10 10 10 10 11 11 12 13 13 13 12 12 15 16 16 17 16 18 16 16 25 26 26 30 27 23 23 21 20 21 21 22 23 24 27 28 29
3 3 5 4 7 7 8 8 8 8 8 8 6 5 5 2 2 2 2 3 3 3 3 3 3 2 3 3 3 3 4 4 5 5 5 6 6 6 6 7 7 8 8 8 8 9 9 9 9 10 10 11 10 10 11 11 11 11 11 13 17 17 15 15 14 15 18 18 18 15 18 25 26 26 27 24 23 22 21 20 21 22 22 24 25 27 29 30
3 5 5 6 8 8 8 8 8 9 6 5 5 4 3 2 3 2 3 3 3 4 3 3 3 3 4 4 3 4 4 5 5 5 6 6 7 7 7 8 8 9 9 8 9 8 9 10 9 10 10 10 11 11 12 10 10 10 11 14 18 21 20 15 14 15 16 18 17 14 22 26 25 28 26 23 23 21 22 22 22 23 24 27 28 29 30 30
4 5 6 7 8 8 9 8 8 7 5 4 3 3 3 2 2 3 4 4 4 4 3 4 3 4 4 4 5 5 5 5 6 6 7 7 7 8 8 9 9 9 9 9 9 9 9 10 9 10 10 11 12 10 9 9 10 9 12 16 18 21 21 15 14 16 16 17 16 16 25 28 29 30 24 21 23 22 24 24 24 26 28 30 31 31 31 34
6 5 7 8 8 9 9 8 7 5 3 3 2 3 3 3 4 4 4 4 5 4 4 5 4 5 4 5 5 5 6 6 7 7 7 8 8 9 9 9 9 9 9 9 9 9 9 10 10 11 11 12 10 10 14 14 12 11 14 21 24 23 21 17 14 15 16 17 16 19 25 29 32 29 21 21 24 24 26 26 26 29 31 33 32 32 34 37
8 6 7 8 8 9 8 6 4 4 4 3 4 4 4 5 4 4 5 4 4 5 5 5 5 6 5 6 6 6 7 7 8 8 8 9 9 10 10 9 9 9 9 9 9 9 9 10 11 11 11 10 9 12 18 16 12 13 17 20 24 24 22 22 19 14 15 17 16 18 22 27 32 26 20 24 25 25 28 27 29 32 34 34 33 35 38 42
8 6 7 8 8 9 6 4 3 4 4 4 4 4 4 5 4 4 4 4 5 5 5 5 6 7 6 6 7 8 8 8 8 8 9 9 9 10 10 10 9 9 9 9 9 9 10 11 11 11 10 10 9 9 15 18 18 19 19 17 18 21 23 27 26 17 15 16 15 17 21 28 31 24 21 24 25 27 28 29 32 35 35 35 37 41 45 50
8 6 7 8 8 9 7 4 3 4 4 4 4 4 4 4 5 5 5 5 5 5 6 7 7 10 10 7 8 8 8 8 8 9 10 9 10 10 10 10 9 9 9 9 10 10 11 11 11 11 9 9 10 11 18 23 24 22 21 19 15 17 25 31 30 22 16 15 17 20 23 31 32 23 22 25 26 28 29 31 36 37 37 39 43 48 53 58
7 6 8 8 8 9 8 4 3 4 4 4 4 4 5 5 6 6 5 5 5 5 6 6 7 10 10 8 8 9 8 9 9 9 10 9 10 9 9 10 10 10 10 10 11 10 11 10 9 10 10 12 14 17 20 20 20 19 18 22 20 20 27 31 28 22 18 14 17 23 25 32 31 22 24 27 27 30 31 33 37 39 41 43 48 52 56 61
6 7 7 6 6 8 6 4 3 4 4 4 5 6 5 6 7 6 6 7 6 6 7 7 7 8 9 9 9 9 9 10 10 10 10 10 10 9 10 11 10 10 10 11 11 10 11 9 9 12 14 17 18 18 18 17 17 15 17 24 29 30 26 23 22 21 20 16 20 27 27 28 26 22 26 27 29 32 33 36 38 41 43 46 50 54 60 66
7 7 6 5 6 6 4 4 4 4 5 6 6 6 6 7 8 7 7 7 7 7 8 8 8 8 9 9 9 10 10 10 10 10 10 10 10 10 10 11 11 10 10 10 10 10 11 9 11 15 16 18 18 16 16 16 15 15 21 26 30 32 23 18 20 21 22 21 22 24 23 25 23 23 28 28 31 33 35 39 41 42 45 46 51 55 60 64
8 6 5 5 5 5 4 4 4 4 5 7 7 8 8 7 8 8 8 8 8 9 9 8 8 9 9 10 10 11 11 11 10 10 10 10 10 10 10 10 10 10 10 10 11 12 11 11 15 16 16 17 15 15 16 15 17 20 23 22 23 27 24 21 22 21 22 23 23 20 22 29 28 28 31 29 32 35 38 42 43 44 46 47 52 56 58 61
8 5 5 5 4 5 4 4 4 5 6 7 8 8 9 8 8 8 8 8 8 9 10 10 10 10 9 11 11 11 11 11 10 10 10 10 10 10 10 10 10 10 10 10 12 13 13 14 16 16 17 16 14 16 15 16 22 23 20 21 22 23 26 26 22 19 20 25 28 23 24 35 36 33 33 31 34 37 39 43 44 44 45 49 54 59 64 68
7 5 5 4 5 5 4 4 4 5 6 7 7 8 9 10 10 9 9 9 9 9 10 10 10 10 10 10 10 11 11 10 10 10 10 10 10 10 10 10 10 10 10 11 12 13 15 16 16 17 17 16 17 17 16 16 19 20 20 22 23 21 23 25 20 17 21 28 32 27 26 36 41 37 34 36 39 39 41 43 44 44 45 52 58 64 75 82
6 5 5 4 5 5 4 5 5 6 7 7 8 8 9 9 11 12 10 9 9 10 10 10 10 10 10 10 10 10 10 10 11 10 10 10 10 10 10 10 11 11 11 12 13 14 16 16 16 17 18 19 20 18 18 17 18 24 25 21 21 21 21 22 21 20 24 28 31 29 28 32 37 39 38 41 42 41 44 45 44 44 46 55 65 74 86 91
6 5 5 6 7 7 7 7 7 8 7 7 8 8 9 9 11 13 11 11 12 10 10 11 11 10 10 10 10 10 11 11 10 10 10 10 10 11 11 11 11 11 12 13 15 15 16 16 16 17 19 21 21 19 19 18 21 29 26 19 20 20 21 23 21 22 27 29 30 34 34 31 33 42 44 42 43 43 44 45 43 43 49 61 74 88 96 90
6 6 6 9 9 9 9 8 8 8 7 8 8 7 7 8 12 13 14 17 15 11 10 11 11 11 11 11 10 10 12 11 11 11 11 10 11 11 11 11 12 12 12 14 18 17 16 17 17 18 20 21 20 20 21 20 23 26 23 20 20 18 22 25 21 25 32 33 34 37 37 31 29 38 41 39 45 46 43 43 42 44 53 64 79 92 88 72
6 6 7 8 9 10 10 9 9 9 9 8 7 6 6 9 12 12 16 19 13 10 11 11 12 12 11 12 11 11 11 11 12 11 11 11 11 12 11 12 12 13 12 14 17 17 17 18 17 19 20 20 21 22 22 21 23 25 22 20 19 19 24 26 26 32 36 35 33 32 34 33 28 31 36 43 51 49 42 42 44 49 55 65 80 82 72 70
6 7 9 9 10 10 9 9 8 9 9 8 8 7 7 10 12 12 15 16 11 10 12 11 12 12 12 12 12 11 11 11 11 11 11 11 11 12 12 12 13 13 13 13 15 16 17 17 18 20 20 20 22 22 21 22 23 24 22 20 22 25 27 27 30 35 39 37 30 28 33 34 32 31 35 46 50 43 41 43 47 52 58 69 78 72 68 70
7 9 10 10 10 9 8 7 7 7 8 8 8 9 9 11 14 14 14 12 10 11 12 12 12 12 12 12 12 12 12 11 11 11 12 12 12 12 12 12 13 14 14 14 15 15 16 17 18 19 20 21 22 20 21 22 24 24 24 23 26 29 30 31 32 34 36 33 28 30 34 35 36 33 35 40 38 38 41 43 49 56 63 72 74 73 74 65
11 12 11 10 9 8 6 5 5 5 6 8 8 10 11 10 13 15 12 9 10 12 12 13 13 12 12 12 12 12 12 12 12 12 12 12 12 12 11 12 12 15 17 14 14 16 16 18 19 20 21 21 21 22 23 23 26 27 26 28 30 29 29 30 31 32 33 30 28 31 34 37 37 33 35 36 35 40 42 46 55 60 68 75 77 79 75 64
13 12 10 9 7 5 5 4 4 4 6 7 9 11 12 13 13 13 10 10 11 12 12 13 14 14 13 12 12 12 12 12 12 12 12 12 12 11 11 12 12 16 20 17 17 20 21 20 21 21 21 22 22 24 26 28 29 28 28 33 34 30 31 34 31 30 32 30 29 33 39 41 36 32 35 37 38 44 46 52 60 67 79 85 89 87 57 30
13 11 9 7 5 4 4 4 3 4 5 7 10 11 12 15 15 10 8 10 11 11 12 13 15 14 13 12 12 12 12 12 12 12 12 13 12 12 13 14 14 17 20 21 21 24 27 26 24 24 24 24 24 25 29 30 31 30 31 38 40 36 41 46 37 34 37 33 33 39 45 44 37 36 39 39 43 48 50 58 70 84 93 91 97 90 48 21
12 10 7 5 4 4 4 4 4 4 5 6 9 9 9 12 12 8 8 10 11 12 13 14 15 14 13 13 12 12 12 12 13 13 13 14 13 13 15 16 16 16 19 23 23 23 27 28 25 26 27 26 25 26 28 29 32 34 34 39 44 43 47 47 39 39 43 41 42 45 43 39 36 39 43 43 48 53 58 72 87 97 92 87 95 79 49 50
11 7 5 4 3 4 3 3 4 5 5 6 6 8 11 12 9 9 10 10 11 13 13 14 15 14 14 13 13 13 12 13 13 13 14 14 14 15 16 17 18 17 19 24 24 23 27 27 24 25 26 26 25 25 27 29 32 35 37 40 44 44 47 47 43 46 50 49 47 42 37 36 38 43 46 47 51 58 75 93 96 90 86 90 89 63 47 63
8 5 4 3 3 4 4 4 4 5 6 6 6 9 11 11 9 10 11 11 12 12 13 14 15 15 14 14 14 14 13 13 14 14 14 15 16 17 17 18 18 19 20 22 24 25 28 27 24 25 27 25 26 26 26 30 31 34 41 43 41 41 47 52 51 47 47 47 43 37 36 40 43 47 48 48 53 65 83 96 90 85 92 97 87 65 52 52
5 4 4 3 4 4 5 6 5 6 6 6 7 9 9 9 10 11 11 11 12 12 13 16 16 15 14 15 14 14 15 14 14 15 15 16 18 18 18 19 19 20 21 22 24 26 28 27 25 26 27 26 26 27 27 30 31 36 42 41 39 43 48 52 50 44 45 48 42 38 42 47 48 48 47 50 61 73 81 85 85 87 91 89 88 90 79 52
4 4 4 4 4 4 6 8 6 6 7 7 8 8 8 9 10 11 11 12 13 13 14 15 15 14 14 15 15 15 15 15 15 16 16 18 19 19 19 19 20 21 21 23 25 25 27 30 29 27 28 27 27 30 34 34 32 35 40 39 39 47 49 47 48 49 54 56 48 42 45 49 49 46 46 55 66 73 75 81 86 87 90 86 79 85 81 51
4 4 5 5 5 5 7 8 7 7 7 7 8 8 9 10 10 11 12 12 14 14 14 14 14 14 15 15 15 15 16 17 17 17 18 19 20 21 20 20 21 22 22 23 24 25 27 32 33 28 28 30 29 32 36 37 36 39 44 45 45 49 50 49 52 53 52 55 55 53 50 45 45 46 52 62 69 70 74 85 93 93 93 82 58 50 51 34
5 5 6 7 7 6 7 8 8 8 8 8 9 9 9 10 10 11 11 12 14 14 14 15 14 15 15 15 16 16 17 18 17 18 19 19 20 20 20 20 21 22 23 24 24 25 27 32 34 29 28 33 33 33 33 35 39 43 48 53 51 51 52 54 58 57 53 52 55 59 57 46 43 50 57 63 68 71 76 86 95 95 82 57 37 33 29 18
6 7 7 8 8 7 8 8 8 9 9 9 9 9 9 10 10 11 12 13 14 14 14 14 14 15 15 15 16 16 17 18 19 19 19 19 20 20 20 21 21 22 23 24 25 26 28 33 34 30 32 34 32 31 33 35 40 42 47 52 51 52 54 53 54 55 57 58 56 62 65 53 47 54 57 61 67 70 80 89 89 83 68 42 30 29 19 9
8 7 8 8 8 8 8 8 8 9 9 9 9 9 9 10 10 11 13 14 15 15 15 15 15 15 16 16 16 17 18 18 19 20 20 20 20 20 21 21 21 23 24 25 27 27 30 32 31 31 34 34 31 32 35 38 41 43 46 49 49 54 56 52 51 54 61 65 61 64 69 57 50 54 56 61 70 75 88 95 87 80 71 48 27 18 11 9
8 7 8 7 7 7 7 7 8 8 9 9 9 9 10 10 11 12 13 14 15 16 16 16 15 15 16 17 17 17 18 19 20 20 20 21 21 20 21 21 22 23 24 26 27 28 32 34 34 35 36 35 35 35 37 41 44 48 50 50 50 52 51 49 51 57 65 67 62 64 68 57 47 52 59 66 76 87 91 80 66 62 52 31 17 13 10 10
7 7 7 6 6 6 6 6 7 7 8 9 9 10 10 10 11 12 14 15 16 16 17 16 16 16 16 17 17 18 18 19 20 20 21 21 21 21 21 21 22 23 24 26 28 30 33 35 37 39 38 38 39 38 40 44 48 52 54 50 46 44 43 46 54 63 68 67 64 67 68 56 45 51 63 69 76 85 82 63 50 42 24 9 11 12 9 9
7 7 6 6 5 5 5 5 6 7 8 9 9 10 10 11 11 12 14 16 17 17 17 17 17 17 17 17 18 19 19 20 20 21 21 21 21 21 21 22 22 23 25 26 27 29 31 33 36 39 39 40 42 40 41 44 46 48 48 46 42 40 41 46 57 67 66 62 64 65 62 55 50 53 61 71 78 76 63 49 40 29 12 6 10 9 7 9
6 6 6 5 5 5 5 5 5 6 7 8 9 10 10 11 11 12 13 15 17 17 18 18 17 17 18 18 18 19 20 20 21 21 22 22 22 22 22 22 23 24 25 26 27 29 30 30 33 36 37 38 39 38 38 41 43 43 46 47 42 39 41 45 55 62 61 63 66 60 59 61 55 52 65 81 84 68 49 37 26 13 6 7 8 7 8 9
6 6 5 5 5 5 5 5 5 5 6 7 9 9 10 11 11 12 13 14 16 18 18 18 18 18 18 18 19 19 20 21 21 21 22 22 22 22 22 23 24 25 26 27 28 29 30 31 32 34 35 36 36 37 37 40 43 43 44 45 39 39 42 45 51 56 58 67 66 54 60 70 58 54 71 83 74 56 45 36 21 9 7 8 7 7 7 6
5 5 4 4 5 5 5 5 5 5 5 6 8 9 10 11 11 11 12 13 16 18 18 19 18 18 18 18 19 20 20 21 21 22 22 23 23 23 23 23 24 25 26 28 29 30 31 32 33 34 35 35 36 37 39 42 44 43 40 37 37 40 43 46 50 53 58 66 63 57 65 68 58 61 73 73 61 53 48 36 17 8 7 7 6 6 6 6
3 3 3 3 4 4 4 4 5 5 5 5 7 8 9 11 11 11 12 13 15 18 19 19 19 18 18 19 19 20 21 22 22 22 23 23 23 24 24 24 25 26 27 28 29 32 33 33 34 36 34 34 37 39 41 43 43 41 36 35 38 41 45 48 51 53 59 63 61 65 70 63 59 68 71 63 56 55 50 34 16 8 7 6 6 5 5 6
2 2 3 3 3 3 3 4 4 5 5 5 6 7 8 10 11 11 12 13 15 17 19 19 19 19 19 19 20 21 22 22 23 23 23 24 24 24 24 25 26 26 28 30 30 32 35 35 36 37 36 35 37 40 43 44 42 39 36 37 40 43 46 49 51 54 60 61 62 69 71 62 60 67 65 57 55 54 47 31 15 8 7 5 5 5 5 6
2 2 2 2 2 2 3 3 4 4 5 5 5 6 7 9 10 11 12 13 14 16 18 19 19 19 19 19 20 21 22 23 23 24 24 24 24 25 25 25 26 27 28 30 32 32 35 36 36 39 40 38 39 42 44 45 43 39 37 39 42 45 48 50 52 54 57 59 63 67 66 60 60 63 61 57 55 52 44 30 16 10 8 5 5 5 5 5
2 2 2 2 2 2 2 3 3 4 4 5 5 6 6 8 9 11 12 13 14 16 18 19 19 19 19 19 20 21 22 22 23 24 24 24 25 25 26 25 26 28 28 31 33 33 35 37 37 41 44 41 41 44 45 47 46 42 40 42 44 46 50 52 52 53 55 60 61 61 60 60 60 62 61 58 56 51 43 31 19 13 9 5 5 5 5 6
Wind_Speed
10 11 7 3 5 4 2 2 5 9 7 6 5 4 4 4 3 1 2 3 4 5 7 8 9 8 8 9 10 12 11 12 14 13 12 10 11 12 13 14 14 14 14 14 13 13 13 14 13 13 13 13 13 14 14 14 15 14 11 7 5 6 8 12 15 16 18 22 19 20 25 24 23 28 28 27 28 29 31 30 30 29 28 30 29 32 35 35
11 11 9 6 7 6 3 6 10 8 7 6 4 4 4 2 1 2 4 5 6 7 8 8 9 8 9 10 11 12 11 14 14 9 9 11 13 14 14 14 13 13 13 12 12 13 13 13 13 13 13 13 13 14 14 14 14 13 10 7 6 8 12 15 16 18 20 22 21 21 24 25 24 26 28 30 28 30 33 31 31 32 33 35 31 32 35 35
12 10 10 9 7 3 6 10 10 7 6 5 4 4 2 1 3 5 6 7 8 9 9 8 8 8 10 10 11 11 10 13 11 7 11 13 13 13 13 12 12 12 12 12 12 13 13 12 12 13 12 12 12 13 14 15 14 13 12 7 7 13 15 18 18 19 21 22 23 23 24 26 25 26 28 30 30 31 29 24 25 29 32 36 35 33 34 35
11 10 10 8 3 6 10 10 7 6 5 3 2 1 2 4 6 7 8 9 9 9 9 9 9 8 9 9 10 11 10 13 10 9 13 13 12 12 11 11 10 11 11 11 11 11 11 11 11 11 12 11 12 13 13 14 13 13 11 7 10 15 16 18 20 20 21 22 23 24 25 25 26 28 28 29 32 30 24 21 23 26 28 33 34 33 34 34
12 12 13 8 7 9 9 7 5 5 3 1 0 2 4 6 7 8 9 9 9 9 9 10 10 10 9 7 8 8 7 10 10 11 12 11 11 10 10 10 10 11 11 10 10 11 11 11 11 12 12 11 12 13 13 14 14 13 12 12 14 16 17 18 20 20 20 22 23 24 26 26 27 28 29 29 28 24 23 25 25 26 27 31 32 32 33 34
12 14 16 12 10 7 5 5 4 3 1 1 3 4 5 6 7 8 9 9 10 10 10 11 11 11 10 9 10 9 7 8 8 10 9 9 9 9 10 9 9 9 9 9 10 11 11 12 12 12 12 10 11 11 13 14 13 11 11 16 17 17 18 19 20 20 21 22 23 25 26 27 28 29 29 25 21 22 26 28 27 27 27 30 31 31 32 34
14 14 14 10 7 5 4 4 2 1 1 3 3 4 5 6 7 8 9 9 10 11 11 11 11 11 8 8 12 12 8 8 8 8 7 8 8 8 8 8 8 9 9 10 11 11 11 12 11 11 11 10 11 13 14 14 14 14 14 18 18 17 19 19 20 21 23 23 24 26 26 29 29 27 24 19 22 27 29 30 31 31 30 29 30 30 31 33
10 11 8 6 5 4 3 3 1 2 3 3 4 5 6 7 8 8 8 10 11 11 11 10 10 10 9 9 13 11 7 8 8 7 7 7 7 8 8 8 9 10 11 11 11 10 10 11 12 12 11 11 13 15 15 15 17 18 17 18 17 18 20 19 21 23 24 23 25 26 28 30 27 24 23 22 28 31 32 33 34 34 32 31 31 31 31 32
5 6 5 5 5 4 3 2 2 4 4 4 5 5 6 7 8 8 9 10 11 10 10 9 8 9 10 9 11 8 6 7 7 7 7 7 8 8 8 8 10 11 10 11 11 11 12 12 12 13 12 13 16 16 15 16 17 17 17 18 17 19 19 18 24 26 25 26 27 28 29 27 25 24 21 23 31 34 34 34 34 35 33 31 29 27 27 28
3 4 4 4 4 4 3 3 4 5 5 5 5 5 6 7 8 9 10 10 10 9 9 9 7 7 8 8 8 7 6 7 6 7 7 7 8 8 8 10 11 11 11 11 12 13 13 13 14 14 14 16 18 16 16 18 17 17 21 18 16 20 19 20 28 29 28 30 29 31 32 23 23 24 17 23 35 36 33 31 30 31 29 26 23 22 25 26
3 3 4 4 4 3 4 4 5 5 5 5 5 6 7 8 9 10 10 9 8 8 9 8 6 5 7 9 7 4 6 6 6 6 6 8 8 8 10 11 11 11 12 12 13 14 14 15 16 16 16 18 19 17 17 20 18 20 22 18 20 24 23 25 30 30 33 33 31 36 31 18 21 25 20 29 36 33 30 27 25 25 23 22 23 26 29 29
4 4 4 4 4 4 5 5 5 5 5 5 5 7 8 9 10 9 9 8 7 8 7 6 5 5 8 8 4 3 6 6 6 7 7 8 9 10 11 11 11 12 12 14 14 15 16 17 17 17 18 18 20 18 17 20 18 19 21 19 23 23 24 30 30 31 34 32 34 39 26 14 19 22 23 30 30 25 24 23 23 22 22 26 31 33 32 30
5 5 4 4 4 5 5 5 5 5 5 5 6 8 9 9 9 8 8 7 8 7 7 6 4 6 8 6 4 5 5 5 6 6 7 9 10 11 11 11 12 13 15 16 16 18 18 17 18 18 18 19 21 18 17 18 16 21 21 20 24 18 18 30 32 33 35 32 38 39 20 11 17 21 26 29 23 19 20 23 23 22 27 33 34 32 29 28
6 5 5 4 5 5 5 5 5 5 6 7 8 9 9 9 8 7 7 7 8 7 6 6 6 7 8 5 5 6 6 7 7 8 10 10 10 10 11 12 14 15 17 17 18 19 17 18 19 18 19 19 19 19 19 18 19 25 23 21 26 18 17 30 34 34 35 35 42 37 18 14 17 21 31 31 19 17 22 24 23 27 34 34 29 27 25 25
6 6 5 5 5 6 5 5 5 6 7 8 9 9 8 8 7 7 7 7 7 6 7 7 8 9 8 7 7 8 8 9 10 11 11 11 10 12 13 15 16 17 18 18 18 18 17 19 19 18 18 17 17 19 17 17 21 26 23 19 21 20 22 30 33 34 35 38 41 33 21 19 15 22 34 26 14 19 26 25 25 33 35 28 24 24 24 27
7 6 6 5 6 6 6 6 7 8 8 8 8 8 7 7 7 7 7 7 7 6 7 8 9 9 8 8 10 10 9 9 10 11 11 11 12 14 15 16 17 18 18 18 17 17 17 18 18 16 17 17 18 19 13 16 23 25 25 24 21 22 24 23 27 34 35 37 37 31 27 23 17 26 32 17 12 23 26 24 30 35 30 23 23 25 28 32
7 6 5 6 7 7 7 7 8 8 8 8 8 8 8 8 7 7 7 8 8 7 6 7 8 9 9 9 10 10 8 9 10 11 11 13 14 15 17 17 17 18 18 17 16 17 17 17 19 17 18 20 19 20 16 17 24 25 27 28 26 27 24 19 24 32 35 36 35 30 27 21 20 28 27 12 15 27 25 25 32 31 24 23 25 28 32 34
6 5 5 6 6 7 7 8 8 8 8 9 9 9 9 9 9 9 8 7 7 7 7 6 6 8 9 9 10 10 10 10 11 12 13 14 15 16 17 17 18 17 17 16 16 17 17 17 18 18 20 21 21 24 22 19 22 25 26 27 31 32 25 19 23 31 36 36 32 27 24 17 20 28 21 11 19 27 24 27 32 27 22 25 28 31 34 34
5 5 5 5 6 7 7 8 9 9 10 9 9 9 9 10 10 10 10 8 6 6 7 7 7 8 9 10 10 11 12 12 13 14 15 15 15 16 17 18 17 16 16 16 16 17 16 16 17 19 23 23 24 27 26 23 22 25 27 26 31 32 25 21 26 33 37 36 29 23 23 18 23 29 17 12 22 25 23 30 32 26 25 27 31 35 36 34
5 5 5 5 6 7 8 10 10 10 9 9 8 8 9 10 10 9 9 8 6 8 9 8 9 10 11 11 10 11 13 13 14 15 14 14 15 16 17 17 16 16 17 17 15 15 14 16 20 24 24 23 25 26 25 25 24 27 29 25 23 23 27 28 29 34 36 36 28 20 24 23 27 30 16 14 22 22 24 32 31 26 27 31 35 37 35 34
5 5 5 7 8 9 10 11 10 9 9 10 11 11 11 11 10 8 6 5 8 10 10 10 10 9 11 11 11 12 13 14 15 14 14 14 15 15 16 16 16 17 17 15 14 14 14 18 23 23 22 22 24 25 25 26 27 29 27 24 21 18 29 35 31 34 35 32 26 22 25 26 30 28 16 16 21 22 26 32 30 27 30 35 38 37 35 34
6 6 7 9 10 10 10 10 9 9 9 11 12 13 12 11 10 9 6 7 10 12 11 12 10 8 9 10 12 13 11 12 13 13 13 14 15 15 16 16 17 17 16 14 14 14 16 20 23 21 21 23 24 25 26 27 28 27 23 27 29 26 33 35 31 33 30 24 23 26 26 23 27 23 16 19 23 24 28 30 27 28 35 40 41 38 37 37
7 8 9 10 9 9 9 9 9 9 9 9 9 9 9 9 9 8 8 8 10 11 12 12 10 8 7 8 11 12 9 9 11 12 12 14 15 16 17 17 17 16 15 14 12 13 16 19 21 21 21 23 25 26 27 27 25 23 26 30 33 34 34 32 33 32 25 18 19 26 25 18 21 21 20 24 25 26 30 30 28 33 41 43 41 37 37 37
8 9 9 9 9 9 9 9 8 8 7 5 3 4 4 4 5 6 8 9 9 9 10 11 11 9 6 6 7 10 11 10 10 12 14 15 16 17 17 17 16 16 16 14 11 14 16 18 21 21 21 24 26 27 26 28 26 24 28 31 33 38 32 27 31 31 25 16 16 23 20 12 15 22 25 24 24 28 31 31 31 39 46 44 40 37 33 30
9 9 9 9 9 9 9 8 7 6 4 1 1 1 1 1 2 2 4 6 8 9 8 8 9 10 9 5 5 7 11 11 11 13 15 15 16 17 17 16 16 17 17 14 11 14 15 18 21 20 23 26 26 27 26 28 28 21 24 31 35 35 29 25 27 27 22 12 14 20 13 7 13 21 24 22 25 30 31 31 36 45 48 43 38 34 29 31
10 10 9 9 9 8 6 5 4 3 2 1 0 0 1 1 3 3 2 3 5 8 8 6 7 9 9 7 6 5 7 10 13 14 14 15 16 17 16 15 16 17 17 14 11 11 13 17 21 21 23 26 26 26 26 28 26 17 21 33 35 30 25 23 22 21 17 12 15 13 6 12 16 16 18 22 26 29 28 33 43 49 47 41 34 31 34 45
10 10 9 8 7 5 4 3 2 2 1 1 1 1 2 2 3 5 2 1 2 6 7 7 7 8 8 9 10 7 6 9 12 12 14 15 15 15 15 15 15 16 18 15 10 9 12 16 20 22 22 25 27 25 25 28 24 20 27 34 33 26 22 20 16 14 15 16 13 3 6 19 16 13 21 26 25 26 29 38 48 50 45 39 34 36 46 58
9 9 7 6 5 3 2 2 1 1 1 1 1 2 2 3 3 5 3 2 2 3 5 6 6 6 7 9 11 10 10 10 10 11 13 14 14 14 14 15 15 16 18 15 9 8 10 14 21 23 21 25 27 24 25 26 24 26 31 34 29 20 19 17 11 10 13 13 5 4 16 18 11 15 24 22 19 23 33 43 49 50 45 40 39 45 56 62
8 8 6 4 3 1 1 1 1 2 2 2 2 2 2 3 3 3 3 2 1 1 3 5 5 5 6 8 10 11 11 11 10 11 12 13 14 13 13 14 14 14 18 17 14 11 10 14 21 22 22 26 26 23 25 25 26 29 32 37 28 15 17 15 8 9 11 8 4 11 22 14 11 18 16 11 16 26 39 47 48 48 44 42 44 52 62 64
8 7 5 3 2 1 1 2 2 2 2 2 3 2 2 3 3 2 2 3 3 1 2 3 4 5 5 6 8 10 10 10 11 12 11 12 13 11 11 14 13 14 19 20 18 15 13 13 19 23 23 26 25 23 25 26 28 32 37 40 26 12 15 11 6 10 8 5 9 16 21 16 13 14 10 14 25 35 45 48 47 45 43 44 48 57 65 65
8 6 4 2 1 2 2 2 2 2 2 2 3 2 2 3 3 2 3 3 5 3 1 2 3 4 5 5 7 8 9 9 10 9 7 9 11 9 12 16 17 16 18 20 18 16 13 11 17 22 22 25 26 23 26 27 28 33 37 36 21 9 9 6 5 8 5 6 12 18 24 18 12 13 19 28 36 42 46 46 46 46 45 48 52 60 64 56
7 4 3 2 2 2 2 1 2 2 3 2 3 3 2 2 3 4 3 6 5 3 1 1 1 2 4 5 5 7 8 7 7 8 8 10 12 12 14 18 19 14 10 14 17 14 12 10 14 22 24 26 26 22 24 25 25 31 36 34 21 9 6 4 5 8 7 9 15 23 25 15 14 21 27 33 40 45 43 43 48 47 46 49 53 61 65 56
5 3 3 3 2 2 2 2 2 2 3 3 3 3 2 2 3 4 8 6 3 3 3 1 0 2 3 5 5 5 6 7 8 9 10 11 12 14 15 17 18 15 9 12 16 13 9 7 12 20 23 27 27 22 21 22 21 27 34 30 17 9 8 6 7 9 9 13 21 26 20 13 16 21 27 37 42 41 42 46 46 41 43 51 53 59 63 55
4 4 3 2 2 2 2 2 2 2 3 3 3 3 2 3 3 5 8 5 3 4 3 2 1 2 3 4 5 5 6 7 8 10 10 10 12 14 15 16 17 17 15 14 16 15 8 5 11 17 20 26 26 20 21 22 18 22 29 25 13 7 4 4 8 9 11 21 27 22 12 12 18 24 32 39 36 38 45 41 34 36 46 53 53 55 54 44
4 4 3 2 2 2 2 3 3 2 3 4 4 3 3 4 4 6 7 5 5 5 3 2 1 2 3 3 4 5 6 7 8 9 9 10 12 15 15 15 16 17 17 13 13 17 10 6 12 17 20 26 23 18 22 21 14 16 22 21 15 9 5 9 13 14 18 22 19 14 12 15 23 29 33 33 34 42 39 25 28 43 51 52 52 52 46 37
4 3 2 2 3 3 3 3 3 2 3 4 4 5 5 5 5 6 5 5 5 6 5 2 0 1 2 3 4 5 5 7 7 8 10 10 10 13 15 14 15 16 17 15 13 16 12 7 10 17 23 25 20 18 20 18 15 15 16 19 18 13 8 10 14 16 16 13 10 14 19 22 25 23 23 31 39 39 27 23 40 51 49 49 49 46 42 41
4 3 3 3 3 3 3 2 3 3 3 4 5 5 6 6 5 5 5 4 4 5 6 5 2 1 1 1 2 4 5 7 7 7 9 9 8 11 14 13 14 15 16 16 15 17 15 8 8 17 25 24 18 17 18 19 20 15 12 19 19 11 7 7 11 12 9 8 10 13 18 26 22 13 21 37 37 30 28 36 47 49 49 50 41 32 36 46
4 4 4 3 3 3 2 2 3 4 4 4 5 5 6 6 6 6 5 4 4 4 4 5 3 2 1 0 1 3 5 6 7 7 7 8 7 9 12 13 13 15 15 16 16 18 17 9 8 18 26 23 17 16 16 19 23 19 16 22 20 8 5 10 11 9 7 8 9 11 18 23 15 14 30 38 32 33 41 45 47 46 48 48 39 32 38 49
4 4 4 3 3 3 3 2 2 3 4 4 4 4 5 6 6 6 5 4 4 3 3 4 3 3 2 1 1 1 3 4 6 6 6 7 7 7 11 12 12 14 15 15 16 18 18 9 7 18 24 20 16 14 12 16 22 21 20 22 21 10 7 12 8 5 8 8 8 14 19 14 10 21 36 33 31 41 46 43 39 39 41 43 45 45 47 52
4 4 3 2 3 3 3 3 2 3 4 4 3 4 5 6 6 6 6 5 4 3 3 3 2 3 3 0 1 0 2 3 5 6 5 7 7 7 10 11 12 14 14 15 16 18 18 8 8 19 21 13 12 13 12 14 15 16 15 17 20 15 9 12 7 7 7 6 7 12 13 17 21 29 34 31 32 41 42 37 34 37 44 48 50 52 52 55
3 3 3 2 3 3 2 2 3 3 4 4 4 4 5 6 7 6 6 5 4 4 3 3 3 2 2 1 1 1 1 2 5 5 5 7 7 8 9 10 11 13 14 15 16 18 16 9 13 22 17 10 12 13 15 16 15 17 16 14 19 17 11 9 5 6 7 7 10 10 13 27 33 30 34 34 33 38 37 32 36 43 47 50 52 52 54 57
4 4 3 3 3 2 2 2 2 2 3 3 4 5 5 6 7 6 6 5 5 4 4 3 3 2 2 1 1 2 1 2 4 5 6 7 7 8 9 9 11 13 14 15 15 18 15 9 17 23 16 14 15 13 15 17 18 22 20 17 20 17 12 9 6 11 15 13 16 14 16 26 29 29 36 35 33 37 31 29 38 41 39 46 54 55 56 58
4 4 4 3 3 2 1 1 1 1 2 3 4 5 6 7 7 6 6 5 5 4 4 3 3 3 2 2 2 3 2 2 3 5 6 6 7 8 8 9 10 12 14 14 16 19 14 10 18 20 14 14 15 12 13 16 18 20 19 22 24 19 17 15 12 17 18 15 17 13 12 23 34 38 39 37 35 34 32 39 47 43 43 52 55 56 58 58
4 4 3 3 2 2 1 1 1 2 3 3 4 5 6 7 7 6 5 5 5 5 4 4 4 4 3 3 2 3 3 3 4 5 6 6 7 8 8 9 9 11 14 15 16 18 13 12 17 14 10 10 9 7 9 14 17 14 16 24 26 21 20 20 16 14 11 11 13 11 14 30 44 45 41 40 37 34 41 53 53 48 54 59 56 57 58 57
3 3 2 2 2 2 1 1 1 2 3 4 4 5 6 7 7 6 5 5 5 5 5 5 4 4 4 3 3 3 3 4 5 5 6 8 8 7 8 8 8 10 13 13 16 17 15 15 14 9 8 7 8 9 11 16 19 18 21 27 25 20 19 19 15 11 11 12 16 19 27 43 52 48 44 42 39 43 53 56 52 53 58 58 57 58 58 58
3 2 1 1 1 1 0 0 0 1 3 4 4 5 6 7 7 7 6 6 5 5 6 5 5 5 4 4 4 4 4 5 5 6 7 8 8 8 9 8 8 10 11 12 15 16 17 18 16 12 13 13 15 18 17 19 23 24 24 25 23 20 19 20 16 14 16 18 24 29 33 44 53 53 47 42 42 51 58 55 55 58 57 57 58 57 58 59
1 1 1 1 1 1 1 1 1 1 2 3 4 5 6 7 7 7 7 6 6 6 6 6 6 5 5 5 5 5 6 6 6 7 8 8 9 9 9 9 8 8 11 12 13 15 17 19 18 19 21 21 20 20 18 19 24 26 23 22 22 20 19 21 20 20 19 17 25 35 34 38 50 54 45 42 47 55 57 55 56 57 56 57 57 57 59 59
1 1 1 1 2 2 2 2 2 2 3 3 4 5 5 6 7 7 7 7 7 7 7 7 7 6 6 6 6 6 7 7 7 8 8 8 9 9 10 10 8 8 11 12 13 15 16 17 19 23 25 22 19 19 20 23 26 26 21 17 18 20 22 24 25 25 22 21 30 42 41 41 49 50 42 45 52 54 54 54 55 55 55 57 57 58 59 58
1 1 1 1 2 2 3 3 3 4 4 4 4 5 5 6 7 7 7 7 8 8 8 8 8 7 7 7 7 7 7 8 8 8 9 9 9 10 11 10 8 10 12 12 13 15 15 17 20 24 26 22 17 20 25 28 29 24 17 14 16 21 25 28 29 28 26 30 38 42 41 43 46 42 42 48 51 51 52 53 54 54 55 57 58 58 59 59
2 1 2 2 2 2 3 4 4 5 5 5 5 5 5 6 7 7 8 8 8 8 8 9 8 8 8 8 8 8 8 9 9 9 10 10 10 10 10 9 10 11 11 12 14 14 15 19 20 24 29 25 21 24 28 29 30 21 13 12 16 21 25 28 30 30 29 34 39 37 40 45 43 40 45 50 50 52 53 52 53 53 55 57 57 57 58 59
2 2 3 3 3 3 3 4 5 5 6 6 6 6 6 6 7 8 8 9 9 9 9 9 9 9 9 8 9 9 9 10 10 10 11 10 11 11 10 11 11 11 11 13 14 14 16 20 22 24 27 26 25 27 30 30 28 19 12 13 17 22 27 29 31 33 32 35 37 35 39 44 43 43 48 50 50 51 52 52 53 53 54 55 56 57 59 59
3 3 3 4 4 3 4 5 5 6 7 7 7 7 7 7 7 8 9 9 9 9 9 10 9 10 9 9 9 10 10 11 11 11 11 11 12 12 11 12 12 12 12 14 15 16 16 19 23 22 22 24 25 27 30 26 17 12 12 16 20 24 28 32 34 35 34 33 33 35 39 43 44 46 50 50 50 50 51 52 53 53 54 54 56 57 58 59
Wind_Direction
221 207 189 168 166 157 121 160 286 301 297 281 288 291 291 295 286 322 94 106 106 96 85 86 85 84 84 82 81 77 77 79 72 66 70 72 65 58 51 47 42 39 34 32 28 23 25 23 19 15 12 15 11 5 8 10 9 12 15 3 338 352 338 321 324 322 321 324 329 322 321 332 331 326 326 326 327 323 323 326 320 317 317 309 305 303 300 301
220 207 198 197 174 157 191 267 288 289 280 279 291 294 293 293 243 125 128 121 105 92 87 91 91 89 84 83 86 85 86 80 72 69 73 66 58 53 47 43 37 32 28 25 22 20 23 20 15 14 14 15 7 2 5 5 12 14 6 1 343 332 324 325 329 326 327 326 327 325 322 327 330 326 324 326 327 325 330 334 327 322 319 310 307 306 305 305
212 200 193 194 186 187 254 275 284 274 274 285 295 296 293 166 142 137 132 114 101 94 91 94 97 97 92 92 92 91 89 81 76 69 65 59 53 49 42 37 29 27 23 20 21 22 23 19 15 16 16 12 4 2 2 1 7 6 9 14 326 323 328 330 333 331 329 326 327 326 322 325 328 325 325 326 326 331 335 332 321 320 318 310 309 310 306 306
181 179 166 167 206 277 275 275 272 266 279 292 298 287 150 146 142 133 120 109 103 98 93 93 97 103 104 101 91 87 80 76 75 63 59 54 49 44 36 28 22 25 23 21 24 24 25 23 19 18 17 9 3 3 4 2 358 359 11 3 323 330 335 332 335 334 329 328 327 324 323 326 327 326 327 327 329 336 331 314 309 311 310 306 308 309 306 305
160 171 168 188 250 267 268 268 266 273 287 295 124 145 142 137 130 117 110 108 103 96 93 93 96 98 101 101 88 81 74 71 64 55 54 47 44 37 28 22 22 28 25 25 27 27 26 22 20 18 17 10 3 2 359 357 356 2 1 346 338 338 338 335 336 335 331 331 327 326 327 327 329 329 330 333 336 337 323 313 312 310 308 305 306 307 306 305
154 179 193 219 244 242 250 263 272 284 301 119 128 130 124 116 108 103 102 99 95 95 98 97 95 89 89 95 88 76 71 78 64 53 51 41 36 28 26 25 28 34 29 30 29 26 23 19 19 15 12 9 6 0 351 352 1 9 351 343 346 342 340 339 338 338 335 334 330 329 329 329 333 333 334 338 336 329 319 314 313 308 307 306 305 305 305 305
149 176 201 220 226 219 241 263 276 290 114 124 129 118 108 104 97 95 93 92 96 102 103 99 92 88 90 96 88 76 71 78 66 53 48 37 34 31 34 33 36 39 31 30 26 21 18 15 17 12 10 10 5 359 354 354 360 5 353 347 347 345 347 345 343 342 337 337 334 333 334 334 336 336 337 338 330 325 320 314 311 307 304 301 301 302 303 305
161 178 199 205 208 212 235 258 246 114 123 129 124 115 109 104 95 90 90 97 104 105 102 97 94 95 93 87 84 79 67 66 59 49 45 40 41 41 39 35 38 36 27 24 21 17 13 13 13 11 16 14 3 359 1 360 356 357 352 349 350 350 354 352 348 344 341 343 339 339 341 339 338 341 339 333 331 327 320 315 311 308 306 304 303 303 303 304
193 195 199 188 195 208 215 209 135 125 131 128 121 115 108 100 92 91 98 104 106 105 102 98 98 95 88 80 78 77 62 57 51 43 45 45 45 42 35 34 36 31 23 19 15 12 11 12 12 12 17 14 5 2 6 5 353 350 352 353 355 354 357 357 352 349 347 346 343 343 346 345 341 344 337 326 331 329 321 317 313 311 312 312 312 310 310 308
204 198 187 180 188 198 175 147 134 131 127 119 115 109 103 98 96 100 105 107 105 104 101 98 94 93 95 83 72 73 64 53 48 45 45 45 42 37 30 32 31 23 19 15 11 10 9 12 14 15 15 10 5 4 6 4 354 354 355 353 357 357 358 359 355 351 345 345 349 347 350 354 345 345 331 319 330 330 323 322 319 318 320 322 326 325 323 320
202 185 172 178 180 169 145 139 134 128 120 113 108 103 102 104 106 107 109 109 108 102 96 94 93 97 92 72 58 70 66 56 55 49 42 39 35 30 29 28 24 20 16 13 11 12 11 14 15 14 13 8 5 6 4 0 357 358 353 351 360 358 358 359 354 350 345 348 354 349 353 6 351 343 328 322 329 328 327 331 329 328 331 335 336 331 328 325
188 172 164 168 162 148 138 133 130 125 116 107 102 102 104 109 111 110 109 109 107 101 95 93 95 88 74 63 61 80 68 60 55 50 41 33 30 29 28 23 21 19 15 15 15 14 15 15 14 13 11 8 7 6 359 356 356 354 353 1 6 360 355 353 351 351 350 351 352 349 358 20 352 330 320 326 327 328 333 337 335 334 336 335 330 326 325 324
168 161 151 149 144 137 129 124 123 115 103 99 103 109 111 112 109 104 101 100 100 98 96 94 93 85 72 65 78 78 72 72 64 57 46 35 31 29 26 24 23 21 18 18 17 16 15 13 12 12 9 7 7 0 351 354 356 356 1 6 6 2 349 347 349 353 353 351 350 352 1 11 344 317 321 336 333 336 341 335 334 333 332 330 326 323 323 325
154 144 132 131 131 126 120 117 112 104 101 104 109 113 113 112 107 103 102 100 99 95 93 90 85 83 76 73 81 82 82 77 66 54 47 41 35 32 31 27 25 25 21 19 18 15 13 11 10 11 8 5 359 350 351 359 360 0 4 1 358 358 346 346 350 353 353 350 351 356 353 348 344 320 330 342 338 341 340 331 330 330 331 328 324 323 323 328
140 125 119 121 122 123 119 113 111 112 110 110 112 111 111 110 107 107 104 96 94 92 90 84 83 81 76 79 77 70 63 54 47 42 40 38 38 37 32 27 26 25 20 17 16 12 11 11 9 9 5 359 355 359 2 0 359 360 360 353 351 351 350 351 350 352 353 349 352 356 346 347 345 321 332 340 332 338 336 328 328 331 331 326 322 323 324 327
125 114 116 121 123 128 121 112 116 119 117 114 113 110 110 111 109 106 96 87 84 90 94 86 85 81 73 72 63 57 52 45 46 44 41 41 42 39 32 28 24 21 18 15 12 9 11 11 7 3 358 359 4 12 13 357 356 357 355 351 347 349 353 353 347 350 351 347 352 353 345 349 335 320 333 334 320 336 333 326 329 332 329 321 320 322 323 324
118 116 121 128 132 132 121 115 118 119 117 113 111 111 109 106 99 92 89 87 81 84 98 94 84 77 70 69 64 61 60 59 57 50 47 45 41 36 32 27 21 17 15 12 8 7 11 9 6 1 1 6 6 10 14 360 352 352 353 352 351 351 354 351 342 346 349 348 352 350 345 343 321 323 335 322 319 333 328 324 331 332 325 317 319 321 323 323
121 121 123 132 135 133 126 121 120 118 115 112 109 108 105 97 85 78 82 88 86 83 90 91 88 78 67 69 72 68 67 66 59 51 49 44 37 34 31 26 21 17 12 12 10 8 12 9 5 4 6 8 5 9 13 3 351 351 354 354 354 353 353 348 337 341 348 349 352 349 345 336 314 327 333 305 321 330 324 327 332 330 318 317 321 324 326 322
125 123 127 137 139 139 135 126 121 117 115 109 104 103 102 94 81 75 74 75 86 88 82 83 92 87 72 72 74 66 63 59 51 49 46 38 34 31 27 23 21 16 15 18 11 8 11 3 4 9 8 7 6 8 7 0 353 352 356 357 356 352 348 344 334 340 347 348 352 348 345 334 314 327 324 292 323 328 323 329 332 326 317 320 326 327 326 321
130 131 140 145 141 139 131 122 117 113 111 104 102 99 94 87 75 66 65 68 81 84 84 86 90 86 74 69 71 67 62 54 49 48 42 35 31 28 25 21 19 18 19 19 10 8 5 1 12 14 10 9 5 4 2 358 353 355 360 357 353 345 341 342 339 343 346 346 352 349 343 332 316 324 311 291 323 322 318 329 330 324 320 326 330 329 325 318
137 138 142 139 136 133 126 122 116 108 106 105 102 92 82 78 73 66 66 83 86 80 81 83 85 84 72 64 63 61 55 50 50 47 42 34 29 28 23 18 18 17 14 10 7 8 4 11 19 14 10 8 2 1 0 358 356 359 360 351 349 340 337 345 344 343 344 342 346 343 339 326 315 319 295 286 315 312 317 329 327 322 325 331 332 327 323 316
142 136 131 131 130 129 125 124 118 112 114 110 99 87 80 76 77 79 80 84 81 75 74 75 78 82 76 66 59 55 50 48 47 45 41 34 30 27 19 15 15 13 9 7 10 10 10 18 19 13 11 5 1 3 1 2 1 358 356 349 349 344 340 344 342 341 344 339 334 338 338 316 306 311 287 289 305 305 316 326 324 326 331 333 330 324 319 314
148 138 131 130 129 128 126 127 125 126 129 117 94 84 82 78 79 82 79 76 73 70 68 67 69 71 81 76 63 61 63 60 51 47 43 34 30 23 16 16 14 11 10 12 18 19 20 21 15 12 10 3 3 3 1 5 3 353 353 350 346 346 343 337 335 342 349 337 326 337 336 302 293 303 293 293 297 300 314 322 324 329 331 331 326 321 317 315
151 140 135 133 129 128 130 131 133 138 142 131 87 78 86 90 90 82 75 70 64 64 62 60 61 60 68 84 74 65 61 58 49 45 40 33 28 20 15 14 11 10 11 11 14 20 25 20 12 11 9 5 4 3 1 4 3 355 353 350 344 345 343 332 334 345 350 336 319 332 332 294 290 301 295 292 292 302 316 323 328 330 330 328 322 320 321 322
150 140 137 134 129 128 132 137 143 152 163 170 69 64 104 154 150 116 79 63 49 48 50 51 53 52 54 73 89 68 56 50 43 40 36 30 26 20 16 13 11 14 14 13 12 16 23 15 10 11 9 7 4 1 3 2 2 358 348 348 345 342 342 341 340 344 347 337 316 326 333 315 300 292 291 293 299 312 322 326 330 330 327 323 321 324 326 324
145 139 137 133 129 130 136 145 157 171 187 195 161 279 256 227 200 189 125 68 32 30 39 43 40 42 46 59 75 67 50 42 38 36 32 28 25 21 18 14 16 20 17 16 16 14 16 12 10 10 9 8 3 0 2 0 3 357 342 347 347 342 344 345 343 341 336 321 309 311 330 329 310 283 289 304 310 318 324 325 328 327 323 320 321 325 324 326
144 140 139 135 132 134 142 150 156 169 192 211 245 272 259 248 218 204 191 221 308 7 27 37 35 36 44 55 60 58 51 39 33 31 28 26 24 20 19 18 19 23 21 20 17 5 7 10 9 10 9 5 1 1 359 358 0 352 346 350 348 346 347 341 337 332 319 312 308 305 342 323 310 297 304 312 316 318 321 325 325 323 321 318 317 320 324 328
148 145 145 144 145 142 137 148 161 197 208 220 245 287 267 238 218 193 192 258 287 350 17 33 39 41 48 54 55 56 52 41 33 31 27 24 21 19 20 21 22 24 25 26 21 2 2 7 8 9 6 3 2 359 356 358 358 350 348 353 353 349 347 338 324 316 314 316 312 19 348 326 305 313 311 311 314 314 321 325 323 321 320 316 315 322 328 329
155 149 149 154 163 163 168 205 232 215 224 233 235 291 273 216 191 169 194 268 275 337 27 38 40 42 50 56 56 55 52 45 39 35 28 21 17 15 18 23 25 26 27 26 23 13 4 5 6 4 1 3 2 356 357 359 355 351 351 356 358 350 344 343 328 314 300 295 327 348 348 339 307 312 305 295 305 311 320 322 319 319 318 316 319 326 328 327
156 151 153 160 178 209 215 225 236 223 236 236 226 270 261 198 168 166 232 236 210 198 48 40 37 42 53 61 57 53 51 45 40 36 30 23 16 10 16 22 23 27 27 21 17 13 5 360 1 0 360 1 359 357 359 358 355 356 356 359 360 339 335 335 322 328 295 293 348 343 341 334 310 310 295 294 307 312 318 319 318 318 315 315 321 328 329 328
156 156 165 182 206 213 218 218 225 228 226 220 220 235 232 190 186 242 259 199 179 164 98 37 34 43 51 64 62 55 53 47 43 41 36 29 19 11 18 22 21 24 23 14 10 9 5 357 354 356 357 358 359 359 358 358 359 359 359 2 2 334 319 296 304 343 317 319 342 336 332 320 293 299 301 305 312 316 319 319 319 318 315 318 325 330 331 330
161 168 189 216 219 211 210 200 211 220 210 206 211 208 194 187 229 250 205 169 178 187 161 24 26 42 54 67 64 58 54 50 43 35 30 26 16 13 21 23 24 28 20 8 9 5 356 352 348 351 355 357 1 2 359 358 356 358 3 6 7 356 338 327 339 342 312 307 323 328 327 308 285 297 300 307 315 318 321 321 320 319 319 324 329 329 329 331
176 195 211 220 213 201 197 199 208 213 205 197 194 193 189 224 254 219 181 175 203 207 196 200 101 61 62 64 57 53 45 40 35 29 30 26 17 22 26 24 26 30 22 10 13 5 342 334 342 348 352 354 358 3 3 358 352 358 8 12 13 11 355 342 340 335 313 301 311 319 315 294 300 304 302 310 315 317 321 321 320 321 323 328 328 326 329 333
207 220 217 207 199 203 212 215 219 222 212 203 196 186 199 240 241 193 186 196 191 174 182 203 178 69 60 57 47 43 33 30 29 27 29 23 21 27 27 25 25 24 21 16 10 5 352 317 337 346 348 350 355 1 1 1 358 358 6 15 22 21 357 315 322 323 302 301 310 318 309 295 310 309 308 313 315 318 320 321 321 320 321 324 325 326 330 332
228 226 211 210 218 220 225 218 217 223 210 203 193 190 224 245 212 187 191 195 179 179 193 190 161 76 57 51 37 32 31 27 22 23 23 19 22 25 23 24 22 21 24 21 6 5 359 306 328 344 347 348 352 356 359 5 7 356 1 10 7 349 305 277 288 284 282 294 307 315 301 299 310 309 310 319 324 325 324 320 315 317 320 322 324 328 331 331
228 220 213 225 228 223 223 217 215 213 203 200 193 204 231 230 199 193 197 195 198 211 220 220 218 37 42 40 31 28 26 20 16 18 17 14 19 21 20 20 18 19 23 22 12 9 358 307 325 345 346 348 349 350 357 7 8 358 358 2 355 341 318 287 284 286 285 281 295 313 307 310 317 312 314 328 330 328 323 309 312 319 323 324 326 329 330 332
219 218 222 224 221 215 216 218 214 206 195 194 200 222 231 217 202 202 198 199 210 218 223 235 250 269 347 13 37 32 25 18 14 11 10 10 10 12 15 15 14 16 18 18 14 6 356 333 338 347 344 345 345 345 351 358 2 2 355 357 357 350 342 322 305 308 309 293 301 314 310 311 318 314 319 329 329 322 315 312 317 324 325 325 329 329 326 331
219 221 220 219 214 205 200 203 206 202 202 203 215 234 227 211 209 202 196 205 206 206 214 219 222 217 211 65 47 32 27 21 15 10 4 3 358 2 9 11 11 12 13 15 11 4 360 346 339 347 344 341 344 352 354 347 349 354 352 359 8 7 322 326 323 314 319 317 307 313 313 310 308 308 318 326 327 322 322 322 323 325 324 326 330 326 322 328
219 214 213 212 199 190 182 173 176 185 204 217 224 233 222 213 213 206 208 217 212 214 209 204 220 212 188 81 64 36 24 19 15 16 7 358 353 353 2 7 8 8 9 11 8 3 1 350 327 343 344 342 345 354 352 334 339 349 350 355 4 5 315 320 322 279 299 314 304 314 317 307 305 317 321 327 329 328 329 327 325 326 325 327 329 328 327 330
209 201 199 191 179 183 191 195 193 189 201 214 220 230 227 219 219 216 218 219 215 224 218 213 221 198 195 65 71 53 13 15 11 16 11 2 358 353 358 2 3 4 5 6 6 1 360 350 321 341 349 345 333 330 327 325 332 340 339 341 350 356 339 322 296 252 284 300 305 318 306 295 311 323 325 331 332 329 327 323 321 323 324 327 330 330 332 334
180 175 167 147 149 169 188 201 208 204 207 217 228 234 227 223 225 223 220 221 223 232 233 227 225 207 213 216 38 336 328 5 6 10 5 2 0 352 354 356 358 2 0 1 3 360 358 344 328 341 346 327 313 313 320 327 330 331 328 330 340 348 347 332 298 272 282 271 289 302 288 299 315 326 329 333 330 324 322 318 319 322 323 328 331 331 334 337
155 153 143 129 131 139 157 180 189 197 210 223 230 229 225 227 230 225 224 227 232 239 243 239 236 236 234 236 335 344 312 327 355 3 356 355 354 349 351 353 356 359 358 360 0 356 354 342 339 344 338 322 323 322 323 326 328 329 326 327 336 339 338 335 311 302 301 283 281 278 271 294 313 324 327 330 326 321 322 320 322 323 324 328 331 333 336 338
145 139 127 118 115 120 130 145 188 218 225 227 231 231 230 232 231 229 233 233 239 246 245 253 254 254 268 271 304 342 331 302 333 348 345 344 344 345 349 349 352 355 356 357 356 354 354 345 343 342 324 312 311 307 313 319 328 331 324 324 328 327 326 325 308 301 298 285 292 294 271 294 316 326 326 326 323 319 319 323 326 328 329 331 333 334 336 337
139 135 124 112 100 103 107 39 347 280 249 234 238 240 238 237 235 238 241 239 245 251 249 262 264 258 277 282 288 331 336 312 324 335 334 335 337 341 345 345 348 352 353 355 353 355 356 346 344 338 323 314 302 299 315 320 330 327 305 310 318 320 322 322 316 307 286 274 298 297 266 292 316 329 327 324 323 319 321 326 330 332 333 334 335 335 336 337
144 143 132 122 103 86 74 38 359 292 262 242 242 246 243 243 243 243 249 251 254 258 259 265 269 267 275 279 286 313 326 317 319 324 326 329 332 338 340 338 340 345 350 353 351 351 349 347 347 339 332 331 310 310 316 312 314 307 299 307 315 319 318 317 313 296 278 284 289 280 280 300 320 334 331 324 324 324 327 332 334 336 335 335 335 335 336 338
148 155 152 157 146 99 53 335 25 279 268 250 246 252 249 249 250 249 256 263 265 269 268 266 275 279 275 280 286 297 313 315 313 316 322 325 326 332 333 330 331 338 347 349 348 347 342 341 345 335 325 320 310 311 312 306 304 304 306 307 308 313 312 310 300 281 288 294 287 290 295 303 322 338 334 323 324 328 333 337 338 337 336 335 335 335 337 338
168 201 235 254 238 223 235 249 253 269 268 256 253 259 255 253 257 257 261 268 271 278 276 271 280 284 278 284 288 293 308 312 311 315 317 320 322 323 326 325 321 329 341 343 344 345 338 336 338 332 328 328 322 318 316 310 308 312 312 304 303 308 307 303 298 298 306 288 285 309 312 301 320 338 334 323 328 332 335 338 338 337 336 335 335 336 337 338
211 251 256 251 247 250 246 243 255 268 266 262 262 266 263 260 262 264 266 270 273 281 282 277 282 287 284 286 287 292 303 306 310 314 312 314 319 317 320 323 315 321 334 337 338 338 333 332 333 328 331 334 327 322 325 322 318 318 313 301 300 305 307 309 309 311 306 279 291 317 318 309 325 339 332 327 332 334 335 338 337 337 336 335 336 337 337 338
11 295 273 259 255 262 256 247 255 266 268 270 268 272 274 270 267 268 269 273 277 283 286 283 283 288 288 286 286 289 295 300 307 310 308 309 312 312 316 319 313 316 325 327 331 334 328 330 332 327 330 337 334 330 333 329 324 319 306 295 299 304 310 315 317 317 306 296 307 317 313 317 333 336 328 329 334 334 336 338 337 337 337 337 337 337 338 340
18 352 328 298 277 267 261 255 256 261 267 272 272 276 283 281 275 273 270 273 278 283 286 286 284 287 288 285 283 284 287 293 300 306 305 303 306 308 311 313 310 310 317 321 325 329 325 326 331 327 328 337 342 337 335 331 325 315 292 291 306 310 312 314 318 320 312 310 318 315 309 322 337 333 328 333 337 338 338 338 337 338 338 337 337 338 339 342
12 360 349 327 305 291 276 266 263 264 265 269 273 279 286 285 282 280 276 274 277 282 286 287 285 285 287 285 281 280 284 288 295 303 303 300 302 304 301 306 307 302 310 319 320 325 325 323 329 331 327 332 337 335 334 329 319 305 291 302 312 314 317 318 321 324 321 320 321 314 313 327 336 334 333 337 339 339 339 338 339 340 339 338 338 340 341 343
347 343 342 333 325 315 296 283 275 271 269 270 274 277 282 287 285 282 280 276 277 282 286 288 288 287 287 285 281 281 283 286 291 298 302 300 301 301 297 303 306 298 305 318 319 322 324 322 327 330 323 323 329 332 332 326 311 303 314 317 317 319 322 323 323 327 329 325 316 313 321 332 336 335 336 339 340 340 340 340 340 340 340 340 340 342 342 342